Find Starlink 31474

NORAD ID: 59304 Int'l Des: 2024-056 Owner: SPXS Country: US Constellation: starlink operational
LEOCIRCULAR

实时位置

正在加载3D地球...

关于 Starlink 31474

正在加载描述...

即将过境

Passes for default location (London). Set your location on the main map for personalized predictions.

高度历史

Loading altitude history...

两行轨道根数

1 59304U 24056J 26133.29387729 .00000681 00000-0 34273-4 0 9998
2 59304 43.0027 219.0265 0001190 266.1239 93.9477 15.27576705121114
Epoch: May 13, 2026 • Age: 15 hours

当前状态

高度 482.5 km
速度 7.63 km/s
星下点 3.31°N, 168.77°W
发射日期 Mar 24, 2024
运行时间 2.1 years
类型 internet

技术详情

分类 Payload
质量 730.00 kg
干质量 700.00 kg
总质量 730.00 kg
长度 0.30 m
直径 4.10 m
跨度 29.00 m
形状 Box + pan
制造商 SPXS
平台类型 Starlink V2M
阶段状态 In Orbit
所有者/国家 SPXS/US

Most Searched